Weather History for West Palm Beach, FL

Change the Weather History Date:

Monday, December 9, 2013

  Actual Average Record
Temperature  
Mean Temperature 79 °F 69 °F  
Max Temperature 84 °F 77 °F 90 °F (2009)
Min Temperature 73 °F 61 °F 41 °F (1934)
Degree Days  
Heating Degree Days 0 1  
Month to date heating degree days 0 9  
Since 1 July heating degree days 4 21  
Cooling Degree Days 14 6  
Month to date cooling degree days 80 54  
Year to date cooling degree days 4281 3920  
Growing Degree Days 30 (Base 50)    
Moisture  
Dew Point 66 °F    
Average Humidity 63    
Maximum Humidity 74    
Minimum Humidity 51    
Precipitation  
Precipitation T in 0.10 in 1.93 in (1977)
Month to date precipitation 4.11 0.97  
Year to date precipitation 64.75 59.92  
Snow  
Snow 0.00 in - - ()
Month to date snowfall 0.0  
Since 1 July snowfall 0.0  
Snow Depth 0.00 in    
Sea Level Pressure  
Sea Level Pressure 30.15 in    
Wind  
Wind Speed 10 mph (SE)    
Max Wind Speed 21 mph    
Max Gust Speed 25 mph    
Visibility 10 miles    
Events      
T = Trace of Precipitation, MM = Missing Value Source: NWS Daily Summary

Daily Weather History Graph

Daily Weather History Graph

Search for Another Location

Airport:

Trip Planner

Search our weather history database for the weather conditions in past years. The results will help you decide how hot, cold, wet, or windy it might be!

Date:

Astronomy

Dec. 09, 2013 Rise Set
Actual Time 6:57 AM EST 5:28 PM EST
Civil Twilight 6:32 AM EST 5:53 PM EST
Nautical Twilight 6:03 AM EST 6:22 PM EST
Astronomical Twilight 5:35 AM EST 6:50 PM EST
Moon 12:21 PM EST (12/9) No Moon Set
Length of Visible Light 11h 21m
Length of Day
10h 30m
Waxing Crescent, 51% of the Moon is Illuminated
Dec 9
Waxing Crescent
Dec 17
Full
Dec 25
Last Quarter
Jan 1
New
Jan 7
First Quarter

Hourly Weather History & Observations

Time (EST) Temp. Heat Index Dew Point Humidity Pressure Visibility Wind Dir Wind Speed Gust Speed Precip Events Conditions
12:53 AM 77.0 °F - 68.0 °F 74% 30.15 in 10.0 mi SE 11.5 mph - N/A   Scattered Clouds
1:53 AM 78.1 °F - 68.0 °F 71% 30.14 in 10.0 mi SE 13.8 mph - N/A   Mostly Cloudy
2:53 AM 78.1 °F - 68.0 °F 71% 30.14 in 10.0 mi SE 10.4 mph - N/A   Overcast
3:39 AM 78.8 °F - 68.0 °F 69% 30.14 in 10.0 mi SSE 9.2 mph - N/A   Overcast
3:53 AM 78.1 °F - 68.0 °F 71% 30.15 in 10.0 mi SSE 11.5 mph - N/A   Mostly Cloudy
4:53 AM 77.0 °F - 68.0 °F 74% 30.15 in 10.0 mi SE 8.1 mph - N/A   Overcast
5:08 AM 77.0 °F - 68.0 °F 74% 30.16 in 10.0 mi SSE 10.4 mph - N/A   Mostly Cloudy
5:34 AM 77.0 °F - 66.2 °F 69% 30.16 in 10.0 mi SE 10.4 mph - N/A   Scattered Clouds
5:53 AM 77.0 °F - 66.9 °F 71% 30.16 in 10.0 mi SE 10.4 mph - N/A   Mostly Cloudy
6:53 AM 78.1 °F - 66.9 °F 68% 30.17 in 10.0 mi SE 11.5 mph - N/A   Mostly Cloudy
7:53 AM 78.1 °F - 66.0 °F 66% 30.18 in 10.0 mi SE 10.4 mph - N/A   Scattered Clouds
8:53 AM 80.1 °F 82.3 °F 66.9 °F 64% 30.19 in 10.0 mi SE 15.0 mph 19.6 mph N/A   Scattered Clouds
9:53 AM 81.0 °F 83.0 °F 66.0 °F 60% 30.20 in 10.0 mi SE 17.3 mph - N/A   Partly Cloudy
10:53 AM 82.9 °F 85.0 °F 66.0 °F 56% 30.19 in 10.0 mi SE 16.1 mph 23.0 mph N/A   Partly Cloudy
11:53 AM 82.9 °F 84.6 °F 64.9 °F 54% 30.18 in 10.0 mi SSE 12.7 mph - N/A   Scattered Clouds
12:53 PM 82.9 °F 85.0 °F 66.0 °F 56% 30.14 in 10.0 mi SE 16.1 mph 21.9 mph N/A   Scattered Clouds
1:53 PM 82.9 °F 85.0 °F 66.0 °F 56% 30.12 in 10.0 mi SSE 13.8 mph 19.6 mph N/A   Scattered Clouds
2:53 PM 82.0 °F 83.8 °F 64.9 °F 56% 30.11 in 10.0 mi SE 16.1 mph - N/A   Scattered Clouds
3:53 PM 81.0 °F 82.2 °F 63.0 °F 54% 30.12 in 10.0 mi SE 13.8 mph - N/A   Scattered Clouds
4:53 PM 80.1 °F 80.9 °F 60.1 °F 50% 30.12 in 10.0 mi SE 11.5 mph - N/A   Scattered Clouds
5:53 PM 77.0 °F - 64.0 °F 64% 30.12 in 10.0 mi SE 5.8 mph - N/A   Scattered Clouds
6:53 PM 77.0 °F - 64.0 °F 64% 30.14 in 10.0 mi ESE 5.8 mph - N/A   Scattered Clouds
7:53 PM 75.9 °F - 64.0 °F 67% 30.15 in 10.0 mi SE 3.5 mph - N/A   Partly Cloudy
8:53 PM 75.0 °F - 64.0 °F 69% 30.16 in 10.0 mi SE 4.6 mph - N/A   Partly Cloudy
9:53 PM 75.9 °F - 64.0 °F 67% 30.16 in 10.0 mi SSE 3.5 mph - N/A   Scattered Clouds
10:53 PM 75.0 °F - 66.0 °F 73% 30.15 in 10.0 mi SSE 3.5 mph - N/A   Scattered Clouds
11:53 PM 73.0 °F - 66.0 °F 79% 30.14 in 10.0 mi Calm Calm - 0.00 in   Scattered Clouds